This demonstration page uses our WeatherBlox Daily Observations layout. Learn more.

Left ArrowRight Arrow

Hourly Observations for May 6, 2017

Temp ( °F °C ) Dew Point ( °F °C ) Humidity (%) Winds ( mph kmh ) Pressure ( in mb ) Visibility ( mi km ) Precip ( " mm )
12:53 am 00:53 Clear 71 21.7 33 0.6 25 25 SSE 14 22 29.82 1010 10 16 0.00 0.00
1:53 am 01:53 Clear 68 20 33 0.6 27 27 SSE 14 22 29.82 1010 10 16 0.00 0.00
2:53 am 02:53 Clear 64 17.8 33 0.6 32 32 ESE 10 17 29.81 1009 10 16 0.00 0.00
3:53 am 03:53 Clear 62 16.7 34 1.1 35 35 ESE 12 19 29.80 1009 10 16 0.00 0.00
4:53 am 04:53 Clear 61 16.1 34 1.1 36 36 ESE 12 19 29.80 1009 10 16 0.00 0.00
5:53 am 05:53 Clear 62 16.7 35 1.7 37 37 ESE 14 22 29.80 1009 10 16 0.00 0.00
6:53 am 06:53 Clear 61 16.1 36 2.2 39 39 SE 13 20 29.80 1009 10 16 0.00 0.00
7:53 am 07:53 Sunny 61 16.1 37 2.8 41 41 SE 14 22 29.81 1010 10 16 0.00 0.00
8:53 am 08:53 Sunny 67 19.4 37 2.8 33 33 SE 17 28 29.82 1010 10 16 0.00 0.00
9:53 am 09:53 Sunny 73 22.8 36 2.2 26 26 SE 16 26 29.83 1010 10 16 0.00 0.00
10:53 am 10:53 Sunny 79 26.1 36 2.2 21 21 SSE 16 26 29.83 1010 10 16 0.00 0.00
11:53 am 11:53 Sunny 84 28.9 35 1.7 17 17 SSE 12 19 29.81 1010 10 16 0.00 0.00
12:53 pm 12:53 Sunny 89 31.7 32 0 13 13 SE 17 28 29.78 1008 10 16 0.00 0.00
1:53 pm 13:53 Sunny 92 33.3 31 -0.6 11 11 SE 10 17 29.75 1008 10 16 0.00 0.00
2:53 pm 14:53 Sunny 95 35 28 -2.2 9 9 SSE 12 19 29.72 1007 10 16 0.00 0.00
3:53 pm 15:53 Sunny 94 34.4 28 -2.2 9 9 SSE 21 33 29.70 1006 10 16 0.00 0.00
4:53 pm 16:53 Sunny 96 35.6 29 -1.7 9 9 SE 16 26 29.67 1005 10 16 0.00 0.00
5:53 pm 17:53 Sunny 95 35 29 -1.7 9 9 SE 18 30 29.65 1004 10 16 0.00 0.00
6:53 pm 18:53 Sunny 93 33.9 29 -1.7 10 10 SE 23 37 29.65 1004 10 16 0.00 0.00
7:53 pm 19:53 Sunny 89 31.7 31 -0.6 12 12 SE 23 37 29.66 1004 10 16 0.00 0.00
8:53 pm 20:53 Clear 84 28.9 34 1.1 17 17 SE 20 31 29.67 1005 10 16 0.00 0.00
9:53 pm 21:53 Clear 81 27.2 38 3.3 21 21 SE 17 28 29.70 1006 10 16 0.00 0.00
10:53 pm 22:53 Clear 79 26.1 39 3.9 24 24 SE 17 28 29.71 1006 10 16 0.00 0.00
11:53 pm 23:53 Clear 76 24.4 41 5 29 29 SE 15 24 29.70 1006 10 16 0.00 0.00

Powered by AerisWeather